FW8134 Weather Reports


Display with metric or nautical units.
time (UTC)temp
F
wind
direction
speed
MPH
gust
MPH
rain 1hr
in
rain 24hr
in
rain mn
in
humidity
%
barometer
mb
20260506134517 57 43 2.0 6.0 0.00 0.95 0.19 70 992.2
20260506133517 58 45 5.0 12.0 0.00 0.96 0.19 69 992.2
20260506132539 57 32 4.0 9.0 0.00 0.98 0.19 72 992.3
20260506131519 57 327 2.0 5.0 0.00 0.99 0.19 73 992.3
20260506130536 57 43 5.0 12.0 0.00 1.01 0.19 72 992.2
20260506125517 57 46 5.0 12.0 0.00 1.02 0.19 72 992.2
20260506124518 57 48 5.0 12.0 0.00 1.02 0.19 73 992.1
20260506123519 57 2 4.0 8.0 0.00 1.02 0.19 73 992.1
20260506122520 57 247 2.0 6.0 0.00 1.02 0.19 74 992.1
20260506121516 56 23 3.0 8.0 0.00 1.03 0.19 74 992.1
20260506120517 56 20 5.0 16.0 0.00 1.03 0.19 74 992.1
20260506115518 56 17 4.0 10.0 0.00 1.03 0.19 76 992.1
20260506114519 55 2 3.0 8.0 0.00 1.03 0.19 78 992.2
20260506113520 55 356 4.0 10.0 0.00 1.03 0.19 79 992.2
20260506112516 54 39 5.0 13.0 0.00 1.03 0.19 80 992.3
20260506111517 54 0 4.0 11.0 0.00 1.03 0.19 80 992.3
20260506110518 54 314 3.0 7.0 0.00 1.03 0.19 83 992.3
20260506105539 54 325 3.0 6.0 0.00 1.03 0.19 85 992.3
20260506104520 53 345 3.0 10.0 0.00 1.03 0.19 86 992.3
20260506103556 53 39 3.0 14.0 0.00 1.03 0.19 86 992.3
20260506102537 52 30 4.0 8.0 0.00 1.03 0.19 88 992.4
20260506101518 51 31 3.0 9.0 0.00 1.03 0.19 89 992.4
20260506100539 51 23 4.0 11.0 0.00 1.03 0.19 88 992.3
20260506095519 51 43 1.0 6.0 0.00 1.03 0.19 89 992.2
20260506094515 51 30 3.0 12.0 0.00 1.03 0.19 90 992.2
20260506093516 50 34 2.0 12.0 0.00 1.03 0.19 91 992.1
20260506092517 50 325 2.0 9.0 0.00 1.03 0.19 93 992.1
20260506091519 49 39 3.0 7.0 0.00 1.03 0.19 93 992.0
20260506090519 49 33 4.0 8.0 0.01 1.03 0.19 93 992.0
20260506085515 49 17 2.0 7.0 0.01 1.03 0.19 93 991.9
20260506084516 49 30 4.0 6.0 0.01 1.03 0.19 94 991.9
20260506083537 49 19 4.0 8.0 0.01 1.03 0.19 94 991.8
20260506082518 48 39 4.0 7.0 0.01 1.03 0.19 94 991.6
20260506081540 48 23 4.0 9.0 0.01 1.03 0.19 95 991.5
20260506080520 48 40 3.0 7.0 0.00 1.02 0.18 96 991.4
20260506072519 48 37 3.0 7.0 0.00 1.02 0.18 97 991.1
20260506071521 48 35 3.0 6.0 0.00 1.02 0.18 97 991.0
20260506070516 47 27 3.0 6.0 0.00 1.02 0.18 97 990.9
20260506061516 47 42 3.0 7.0 0.00 1.02 0.18 98 990.6
20260506060517 47 52 3.0 9.0 0.00 1.02 0.18 98 990.5
20260506050538 47 27 3.0 11.0 0.02 1.03 0.18 98 990.0
20260506044520 48 8 2.0 7.0 0.02 1.02 0.17 98 990.0
20260506043517 48 34 3.0 8.0 0.02 1.02 0.17 98 989.9
20260506042517 48 14 2.0 6.0 0.02 1.02 0.17 98 989.9
20260506041519 48 14 3.0 7.0 0.02 1.02 0.17 98 989.9
20260506040520 48 9 2.0 8.0 0.02 1.01 0.16 98 989.9
20260506035515 48 51 2.0 6.0 0.03 1.01 0.16 98 989.9
20260506034517 48 44 1.0 4.0 0.04 1.01 0.16 98 989.9
20260506033517 48 12 3.0 9.0 0.05 1.01 0.16 98 989.9
20260506032539 48 39 2.0 5.0 0.04 1.00 0.15 98 989.9
20260506031640 48 13 1.0 4.0 0.04 0.99 0.14 98 989.9
20260506030536 48 40 1.0 4.0 0.03 0.98 0.13 98 990.0
20260506025517 49 335 2.0 5.0 0.03 0.98 0.13 98 990.0
20260506024518 49 20 2.0 5.0 0.02 0.97 0.12 98 990.1
20260506023519 49 35 1.0 6.0 0.02 0.96 0.11 98 990.1
20260506022515 49 3 2.0 7.0 0.02 0.96 0.11 98 990.0
20260506021516 49 2 2.0 4.0 0.02 0.95 0.10 98 990.0
20260506020518 49 2 1.0 4.0 0.02 0.95 0.10 98 989.9
20260506015559 49 44 1.0 4.0 0.02 0.94 0.09 98 989.9
20260506014540 49 336 1.0 4.0 0.02 0.94 0.09 98 989.9
20260506013516 49 15 2.0 6.0 0.03 0.94 0.09 98 989.9
20260506012517 49 21 1.0 5.0 0.05 0.94 0.09 98 989.8
20260506011519 50 49 1.0 5.0 0.06 0.94 0.09 98 989.9
20260506010520 50 34 2.0 5.0 0.05 0.93 0.08 98 989.8
20260506005516 50 43 2.0 6.0 0.06 0.93 0.08 98 989.8
20260506004537 50 352 2.0 5.0 0.05 0.92 0.07 98 989.8
20260506003518 50 17 3.0 8.0 0.04 0.91 0.06 98 989.9
20260506002519 51 36 2.0 6.0 0.02 0.89 0.04 98 989.9
20260506001520 51 18 1.0 3.0 0.02 0.88 0.03 98 989.9
20260506000516 51 21 3.0 7.0 0.02 0.88 0.03 98 989.9
20260505235517 51 19 2.0 7.0 0.02 0.87 0.02 98 989.9
20260505234538 51 42 2.0 4.0 0.02 0.87 0.02 98 989.9
20260505233519 51 51 3.0 12.0 0.01 0.87 0.02 98 989.9
20260505232515 51 1 4.0 10.0 0.02 0.87 0.02 98 989.9
20260505231556 52 7 3.0 7.0 0.02 0.87 0.02 98 989.9
20260505230518 52 24 1.0 5.0 0.01 0.86 0.01 98 989.8
20260505225518 52 50 1.0 3.0 0.01 0.86 0.01 98 989.8
20260505224520 52 0.0 1.0 0.02 0.86 0.01 98 989.9
20260505223516 52 39 1.0 5.0 0.02 0.86 0.01 98 989.9
20260505222517 52 41 4.0 7.0 0.02 0.85 0.00 98 990.0
20260505221518 52 29 2.0 5.0 0.05 0.85 0.00 98 990.0
20260505220519 52 40 3.0 7.0 0.06 0.85 0.00 98 990.1
20260505215520 52 33 2.0 6.0 0.07 0.85 0.85 98 990.1
20260505214516 52 27 2.0 6.0 0.09 0.84 0.84 98 990.1
20260505213517 52 13 2.0 6.0 0.11 0.84 0.84 98 990.1
20260505212538 52 12 0.0 3.0 0.13 0.83 0.83 99 990.1
20260505211519 52 31 1.0 4.0 0.16 0.80 0.80 98 990.2
20260505210515 52 35 2.0 4.0 0.19 0.80 0.80 98 990.2
20260505205516 52 5 2.0 5.0 0.20 0.78 0.78 98 990.2
20260505204518 52 2 1.0 6.0 0.19 0.76 0.76 98 990.1
20260505203519 52 25 1.0 4.0 0.17 0.73 0.73 98 990.0
20260505202515 52 0.0 0.0 0.13 0.69 0.69 98 990.0
20260505201516 52 287 0.0 2.0 0.09 0.65 0.65 98 989.9
20260505200517 52 353 1.0 3.0 0.06 0.61 0.61 98 989.8
20260505195518 52 41 0.0 2.0 0.04 0.57 0.57 98 989.7
20260505194520 52 245 0.0 4.0 0.05 0.57 0.57 98 989.6
20260505193536 52 304 1.0 3.0 0.07 0.57 0.57 98 989.5
20260505192517 52 338 1.0 4.0 0.07 0.56 0.56 98 989.4
20260505191518 53 345 1.0 3.0 0.08 0.56 0.56 98 989.3
20260505190519 53 320 1.0 4.0 0.07 0.54 0.54 98 989.3
20260505185515 53 356 1.0 3.0 0.07 0.54 0.54 98 989.3
20260505184517 53 0.0 3.0 0.07 0.52 0.52 98 989.2
20260505183518 53 22 0.0 2.0 0.06 0.50 0.50 98 989.1
20260505182519 53 31 1.0 5.0 0.06 0.49 0.49 98 989.0
20260505181515 53 11 1.0 4.0 0.08 0.48 0.48 98 989.0
20260505180517 53 0.0 0.0 0.09 0.47 0.47 98 989.0
20260505175518 53 70 1.0 3.0 0.10 0.47 0.46 98 989.0
20260505174539 53 36 1.0 4.0 0.09 0.46 0.45 98 989.1
20260505173515 53 357 1.0 4.0 0.11 0.45 0.44 98 989.0
20260505172516 53 351 1.0 4.0 0.11 0.43 0.43 98 989.1
20260505171517 53 21 2.0 5.0 0.09 0.41 0.40 98 989.1
20260505170518 53 9 2.0 6.0 0.08 0.39 0.38 98 989.1
20260505165520 53 47 3.0 5.0 0.06 0.37 0.36 98 989.1
20260505164541 53 29 2.0 6.0 0.06 0.36 0.35 98 989.1
20260505163541 53 12 2.0 5.0 0.05 0.34 0.33 98 989.1
20260505162517 53 46 2.0 4.0 0.06 0.32 0.31 98 989.1
20260505161519 53 34 3.0 7.0 0.06 0.31 0.31 98 989.1
20260505160520 53 10 2.0 6.0 0.08 0.31 0.30 98 989.1
20260505152519 53 39 3.0 6.0 0.11 0.27 0.26 98 989.1
20260505151600 53 15 2.0 9.0 0.11 0.25 0.24 98 989.2
20260505150516 53 39 2.0 6.0 0.10 0.23 0.22 97 989.2
20260505140517 54 33 3.0 6.0 0.09 0.13 0.12 97 989.0